Location: Newark
(48.1500°N, 13.1167°E)
Time: 08:48:00
(UTC+00:00)

KAITUO 1B - Pass Details

Date: 02 December 2021
Orbit: 486 x 507 km, 97.4° (Epoch: 18 January)

Event Time Altitude Azimuth Distance (km) Brightness Sun altitude
Rises 16:07:47 0° 146° (SSE) 2,596 ? -8.5°
Reaches altitude 10° 16:09:56 10° 139° (SE) 1,719 ? -8.8°
Maximum altitude 16:13:23 38° 70° (ENE) 795 ? -9.3°
Drops below altitude 10° 16:16:52 10° 2° (N) 1,742 ? -9.9°
Sets 16:19:04 0° 354° (N) 2,635 ? -10.2°
